SB KEPS @ AMSAT $ORB16084.N 2Line Orbital Elements 16084.AMSAT
HR AMSAT ORBITAL ELEMENTS FOR AMATEUR SATELLITES IN NASA FORMAT FROM WA5QGD FORT WORTH,TX March 24, 2016 BID: ORB16084.N
DECODE 2-LINE ELSETS WITH THE FOLLOWING KEY: 1 AAAAAU 00 0 0 BBBBB.BBBBBBBB .CCCCCCCC 00000-0 00000-0 0 DDDZ 2 AAAAA EEE.EEEE FFF.FFFF GGGGGGG HHH.HHHH III.IIII JJ.JJJJJJJJKKKKKZ KEY: A-CATALOGNUM B-EPOCHTIME C-DECAY D-ELSETNUM E-INCLINATION F-RAAN G-ECCENTRICITY H-ARGPERIGEE I-MNANOM J-MNMOTION K-ORBITNUM Z-CHECKSUM
TO ALL RADIO AMATEURS BT
AO-07 1 07530U 74089B 16083.90725696 -.00000043 00000-0 51708-5 0 9999 2 07530 101.5653 56.7732 0012333 115.6097 300.9018 12.53620384892430 FO-29 1 24278U 96046B 16084.42997947 -.00000008 00000-0 26090-4 0 9998 2 24278 98.5819 20.7415 0351351 62.1607 301.4670 13.53065762968051 RS-22 1 27939U 03042A 16084.85788746 .00000300 00000-0 62694-4 0 9995 2 27939 97.8748 239.8421 0012349 207.5387 152.5160 14.66358152667465 HO-68 1 36122U 09072B 16084.76830459 -.00000059 00000-0 -43517-4 0 9993 2 36122 100.1540 124.0096 0007533 185.3830 174.7202 13.16333138301509 AO-73 1 39444U 13066AE 16084.09909144 .00000611 00000-0 83579-4 0 9999 2 39444 97.6913 141.0782 0057647 299.6121 59.9356 14.80942009124981 EO-79 1 40025U 14033R 16084.73077819 .00000836 00000-0 97384-4 0 9995 2 40025 97.9348 350.1911 0012468 348.4700 11.6228 14.87890851 95645 XW-2A 1 40903U 15049E 16084.89341916 .00005017 00000-0 14624-3 0 9998 2 40903 97.4496 99.0467 0018098 78.3809 17.6231 15.35689279 28615 XW-2C 1 40906U 15049H 16084.88849170 .00002686 00000-0 15419-3 0 9997 2 40906 97.4542 93.7964 0015521 335.9830 108.2394 15.13292375 28257 LILACSAT-2 1 40908U 15049K 16084.78427262 .00001255 00000-0 75933-4 0 9991 2 40908 97.4608 93.6460 0015766 328.5800 149.3615 15.12356714 28224 XW-2E 1 40909U 15049L 16084.75890015 .00003799 00000-0 21181-3 0 9999 2 40909 97.4535 93.8130 0014759 340.0453 106.8731 15.14096127 28244 UO-11 1 14781U 84021B 16084.74573849 .00000245 00000-0 36796-4 0 9998 2 14781 97.7600 139.2879 0007533 223.6007 136.4612 14.82703788723743 LO-19 1 20442U 90005G 16084.35837814 .00000040 00000-0 30578-4 0 9995 2 20442 98.5383 20.5068 0012604 41.3113 318.9022 14.32806015367200 AO-27 1 22825U 93061C 16084.13881229 .00000020 00000-0 25076-4 0 9997 2 22825 98.7500 39.9054 0007912 199.7008 160.3869 14.29945777173080 IO-26 1 22826U 93061D 16084.48232721 .00000045 00000-0 34826-4 0 9993 2 22826 98.7443 40.3844 0008608 189.9378 170.1635 14.30269422173295 GO-32 1 25397U 98043D 16084.44758191 .00000007 00000-0 21718-4 0 9998 2 25397 98.5590 31.6271 0000806 164.3191 195.8013 14.23588009919807 NO-44 1 26931U 01043C 16084.52335825 .00000042 00000-0 47959-4 0 9995 2 26931 67.0516 171.3329 0007575 268.0315 91.9919 14.30395377756034 SO-50 1 27607U 02058C 16084.76183650 .00000354 00000-0 49811-4 0 9991 2 27607 64.5559 58.7823 0075710 234.4152 125.0370 14.75108593712812 CO-55 1 27844U 03031E 16084.52106414 .00000111 00000-0 69897-4 0 9990 2 27844 98.6947 94.0172 0009257 201.3776 158.7016 14.21929444660417 CO-57 1 27848U 03031J 16083.97888653 .00000086 00000-0 59187-4 0 9996 2 27848 98.7044 93.5329 0008996 211.5920 148.4719 14.21558203660238 CO-65 1 32785U 08021C 16084.88289934 .00000518 00000-0 62841-4 0 9995 2 32785 97.6127 122.5676 0012515 210.0033 150.0468 14.87467019428095 PRISM 1 33493U 09002B 16084.86256697 .00001370 00000-0 13185-3 0 9993 2 33493 98.2273 300.9452 0016516 120.4536 239.8318 14.94696905388633 TISAT-1 1 36799U 10035E 16084.82454652 .00001144 00000-0 12573-3 0 9999 2 36799 98.0223 193.8538 0012598 9.4195 350.7255 14.89630539308860 ALMASAT-1 1 38078U 12006B 16083.52379048 .00032409 36791-5 45298-3 0 9991 2 38078 69.4504 244.2197 0409238 224.3693 132.3992 14.97383768216734 DUCHIFAT-1 1 40021U 14033M 16084.69079456 .00001280 00000-0 14156-3 0 9994 2 40021 97.9373 351.0304 0013087 347.2618 12.8266 14.89127146 95689 NANOSATCBR1 1 40024U 14033Q 16084.70598895 .00001024 00000-0 11600-3 0 9999 2 40024 97.9351 350.5477 0012270 347.3698 12.7209 14.88560732 95660 DTUSAT-2 1 40030U 14033W 16084.69133176 .00000809 00000-0 95327-4 0 9990 2 40030 97.9328 349.6741 0011734 342.4416 17.6393 14.87523503 95619 ANTELSAT 1 40034U 14033AA 16084.67745449 .00000760 00000-0 12233-3 0 9994 2 40034 97.9145 335.1228 0058440 298.1933 61.3381 14.73296747 94733 MET-2/21 1 22782U 93055A 16084.14837145 .00000080 00000-0 59282-4 0 9993 2 22782 82.5523 20.7155 0021090 252.4803 237.1934 13.83787076139455 NOAA-15 1 25338U 98030A 16084.51602649 .00000056 00000-0 42581-4 0 9998 2 25338 98.7835 88.4959 0011728 73.9300 286.3169 14.25712253928924 NOAA-18 1 28654U 05018A 16084.54279469 .00000008 00000-0 29672-4 0 9992 2 28654 99.1983 89.2707 0013346 250.9019 109.0707 14.12275345558783 NOAA-19 1 33591U 09005A 16084.48397966 .00000101 00000-0 79924-4 0 9993 2 33591 99.0309 40.6068 0015031 96.8308 263.4574 14.12054327367186 HUBBLE 1 20580U 90037B 16084.48373522 .00001157 00000-0 61569-4 0 9992 2 20580 28.4698 98.0354 0002834 22.8656 106.2471 15.08260430222319 ISS 1 25544U 98067A 16084.93494024 .00004358 00000-0 72721-4 0 9997 2 25544 51.6434 118.2334 0001856 355.3924 68.9896 15.54243961991878 CO-58 1 28895U 05043F 16084.16089088 .00000412 00000-0 88651-4 0 9992 2 28895 97.8272 262.3988 0018109 125.5071 234.7824 14.63141776554674 CAPE1 1 31130U 07012P 16084.45471048 .00000357 00000-0 86455-4 0 9997 2 31130 98.0241 43.0967 0097099 159.0577 201.4641 14.55867781473803 AAUSAT2 1 32788U 08021F 16083.86582606 .00001478 00000-0 14734-3 0 9990 2 32788 97.6140 129.5189 0012107 187.8783 172.2249 14.92999859428461 DO-64 1 32789U 08021G 16084.11238885 .00003775 00000-0 28680-3 0 9994 2 32789 97.6157 144.8165 0013913 186.8774 173.2263 15.02697217429226 CO-66 1 32791U 08021J 16084.82476191 .00000703 00000-0 79116-4 0 9998 2 32791 97.6136 125.3880 0013193 199.8216 160.2491 14.89622192428232 RS-30 1 32953U 08025A 16084.69378496 .00000010 00000-0 -13620-7 0 9999 2 32953 82.5073 159.1970 0019138 182.5977 177.5002 12.43067977355586 JUGNU 1 37839U 11058B 16083.89481527 .00000349 00000-0 44296-4 0 9992 2 37839 19.9618 300.6975 0018954 259.7329 228.4110 14.12530293229955 SRMSAT 1 37841U 11058D 16084.86308027 .00000353 00000-0 49145-4 0 9999 2 37841 19.9729 327.2819 0011923 185.6359 256.2290 14.10531588229765 AO-71 1 37854U 11061E 16084.49865570 .00005207 00000-0 29669-3 0 9998 2 37854 101.7082 84.3675 0174750 323.6845 35.2607 15.01644630239384 HRBE 1 37855U 11061F 16084.85686719 .00005126 00000-0 28658-3 0 9992 2 37855 101.7219 83.0379 0188189 326.4190 32.5205 15.00556506239342 HORYU-2 1 38340U 12025D 16083.89970909 .00000621 00000-0 10056-3 0 9991 2 38340 98.3491 66.7534 0010458 286.2700 73.7357 14.74928783206900 RS-40 1 38735U 12041C 16084.68163752 .00000040 00000-0 21992-3 0 9991 2 38735 82.4733 244.4447 0016063 288.3800 71.5528 12.42572045165876 BEESAT-3 1 39134U 13015E 16084.52819382 .00004380 00000-0 24073-3 0 9991 2 39134 64.8710 235.2503 0009587 245.5375 114.4751 15.15379689161283 BEESAT-2 1 39136U 13015G 16084.67295786 .00004050 00000-0 22671-3 0 9991 2 39136 64.8710 239.8585 0009502 239.7747 120.2943 15.13166350161218 ZACUBE-1 1 39417U 13066B 16084.11119678 .00000502 00000-0 70856-4 0 9990 2 39417 97.6903 140.5771 0058420 301.2800 58.2699 14.80295570126186 TRITON-1 1 39427U 13066M 16083.83856921 .00000429 00000-0 77502-4 0 9991 2 39427 97.6772 122.5462 0114553 351.1274 8.7905 14.67111355125000 GOMX-1 1 39430U 13066Q 16084.80597220 .00000712 00000-0 13916-3 0 9990 2 39430 97.6776 112.1408 0153338 22.4349 338.3445 14.58517783124429 LO-74 1 39440U 13066AA 16084.08867659 .00000459 00000-0 72146-4 0 9996 2 39440 97.6844 133.4882 0080206 320.0346 39.4977 14.75066707125733 SPROUT 1 39770U 14029E 16083.80615219 .00001433 00000-0 17374-3 0 9998 2 39770 97.8679 182.0354 0009281 12.9248 347.2188 14.85119399 99262 EO-80 1 40032U 14033Y 16084.71362512 .00000817 00000-0 96329-4 0 9995 2 40032 97.9336 349.7065 0011677 342.5894 17.4920 14.87455803 95618 VELOX-1 1 40057U 14034E 16084.70081770 .00001091 00000-0 16388-3 0 9997 2 40057 98.1938 172.2435 0012293 62.5243 297.7205 14.76583786 93413 DAURIA DX 1 1 40071U 14037C 16084.87712243 .00000484 00000-0 70173-4 0 9998 2 40071 98.3311 172.5400 0009736 60.5973 299.6204 14.80758452 92471 UKUBE-1 1 40074U 14037F 16084.80511833 .00001049 00000-0 13638-3 0 9996 2 40074 98.3349 174.2513 0005913 67.4381 292.7444 14.82948463 92566 HODOYOSHI-1 1 40299U 14070B 16084.87104631 .00002288 00000-0 10609-3 0 9994 2 40299 97.4327 167.8613 0012445 221.5763 248.1344 15.21017438 76610 CHUBUSAT-1 1 40300U 14070C 16084.86402721 .00002495 00000-0 12025-3 0 9991 2 40300 97.4294 166.3208 0020029 229.8781 223.2930 15.19490960 76525 QSAT-EOS 1 40301U 14070D 16084.81826560 .00004858 00000-0 22363-3 0 9999 2 40301 97.4246 165.5272 0028344 231.3261 248.3352 15.20427036 76481 FIREBIRD FU3 1 40377U 15003B 16084.83124533 .00004794 00000-0 22107-3 0 9997 2 40377 99.0830 175.7394 0146921 48.5571 312.8167 15.11741865 63030 FIREBIRD FU4 1 40378U 15003C 16084.82812950 .00004663 00000-0 21494-3 0 9997 2 40378 99.0831 175.7470 0147158 48.5102 312.8647 15.11751289 63034 GRIFEX 1 40379U 15003D 16084.80357794 .00004352 00000-0 20830-3 0 9994 2 40379 99.0839 175.1195 0150596 51.4252 310.0353 15.10170369 62991 NO-84 1 40654U 15025D 16084.30674872 .00011167 00000-0 25132-3 0 00722 2 40654 054.9988 072.6845 0212988 221.8670 136.5819 15.23509029011092 NO-83 1 40655U 15025E 16084.46409766 .00014166 00000-0 29850-3 0 00776 2 40655 054.9888 068.2332 0197014 223.0327 135.5108 15.27537455011143 DEORBITSAIL 1 40719U 15032E 16084.18032048 .00001142 00000-0 17549-3 0 9994 2 40719 98.0274 336.5196 0017306 145.6715 214.5616 14.75379392 37951 NUDT-PHONESAT 1 40900U 15049B 16084.72000037 .00005966 00000-0 31266-3 0 9997 2 40900 97.4465 93.9839 0015270 357.3969 90.8630 15.16055868 28278 XW-2D 1 40907U 15049J 16084.82875604 .00002845 00000-0 16308-3 0 9998 2 40907 97.4512 93.6474 0014524 334.3279 128.5728 15.13310089 28240 XW-2F 1 40910U 15049M 16084.88723677 .00003777 00000-0 21324-3 0 9999 2 40910 97.4542 93.8078 0015590 333.3116 144.9429 15.13634825 28148 XW-2B 1 40911U 15049N 16084.76429978 .00002800 00000-0 16055-3 0 9995 2 40911 97.4563 93.7055 0014577 335.0196 143.8020 15.13302203 28133 DCBB 1 40912U 15049P 16084.91875131 .00003651 00000-0 19567-3 0 9995 2 40912 97.4541 94.3608 0015493 328.8664 94.4006 15.15523469 28191 TW-1C 1 40926U 15051B 16084.82037693 .00011548 00000-0 34343-3 0 9999 2 40926 97.2857 122.7125 0014793 359.0481 119.9707 15.34789127 27814 TW-1A 1 40928U 15051D 16084.80589478 .00005143 00000-0 16615-3 0 9998 2 40928 97.2804 122.2809 0015055 15.7619 87.0257 15.32434956 27790 IO-86 1 40931U 15052B 16084.70876365 .00000889 00000-0 34970-4 0 9993 2 40931 5.9996 197.3521 0014132 1.8169 358.2012 14.76442319 26427 GomX-3 1 40949U 98067HA 16084.59553826 .00042230 00000-0 34408-3 0 9991 2 40949 51.6364 109.3326 0004591 303.4757 56.5801 15.70188508 26742 LQSat 1 40958U 15057A 16084.86654865 .00000244 00000-0 45861-4 0 9999 2 40958 98.0200 160.8499 0019588 65.8572 294.4666 14.72836881 24975 AO-85 1 40967U 15058D 16083.35202864 .00001497 00000-0 17254-3 0 00784 2 40967 064.7790 146.1030 0212150 231.9177 126.2581 14.74893794010616 ATHENOXAT-1 1 41168U 15077C 16084.69302083 .00004778 00000-0 24921-3 0 9997 2 41168 14.9882 208.2943 0013135 272.5815 302.6386 15.09454485 14968 ChubuSat-2 1 41338U 16012B 16084.43775154 .00001062 00000-0 78044-4 0 9990 2 41338 31.0040 87.7457 0014238 289.2238 70.6856 14.99271956 5425 ChubuSat-3 1 41339U 16012C 16084.43198388 .00001025 00000-0 74558-4 0 9994 2 41339 31.0091 87.7013 0014066 293.7286 66.1875 14.99508441 5391 Horyu-4 1 41340U 16012D 16084.35817007 .00001620 00000-0 12082-3 0 9997 2 41340 31.0058 88.0613 0014104 292.3209 67.5931 14.99838053 5404 /EX
participants (1)
-
Ray Hoad